EW6030 Weather Reports


Display with metric or nautical units.
time (UTC)temp
F
wind
direction
speed
MPH
gust
MPH
rain 1hr
in
rain 24hr
in
rain mn
in
humidity
%
barometer
mb
20260509041517 61 58 1.0 0.0 0.00 0.00 0.00 50 999.5
20260509040006 62 48 0.0 0.0 0.00 0.00 0.00 49 999.5
20260509034504 62 58 0.0 0.0 0.00 0.00 0.00 47 999.5
20260509033003 62 41 0.0 0.0 0.00 0.00 0.00 45 999.6
20260509031509 61 22 0.0 0.0 0.00 0.00 0.00 42 999.6
20260509030004 61 332 0.0 0.0 0.00 0.00 0.00 40 999.5
20260509024501 61 58 0.0 0.0 0.00 0.00 0.00 40 999.6
20260509023116 61 53 0.0 0.0 0.00 0.00 0.00 39 999.6
20260509021600 61 56 0.0 0.0 0.00 0.00 0.00 40 999.7
20260509020100 62 65 0.0 0.0 0.00 0.00 0.00 40 999.8
20260509014558 62 65 0.0 0.0 0.00 0.00 0.00 39 999.9
20260509013057 62 65 0.0 0.0 0.00 0.00 0.00 39 999.9
20260509011558 63 65 0.0 0.0 0.00 0.00 0.00 38 1000.0
20260509004607 65 66 0.0 0.0 0.00 0.00 0.00 35 1000.1
20260509003101 66 66 0.0 0.0 0.00 0.00 0.00 32 1000.3
20260509001551 67 72 0.0 0.0 0.00 0.00 0.00 31 1000.5
20260509000050 67 72 1.0 0.0 0.00 0.00 0.00 30 1000.7
20260508234551 67 70 1.0 0.0 0.00 0.00 0.00 29 1000.8
20260508233054 68 58 1.0 0.0 0.00 0.00 0.00 29 1001.0
20260508231547 68 65 1.0 0.0 0.00 0.00 0.00 28 1001.1
20260508230116 68 56 1.0 0.0 0.00 0.00 0.00 28 1001.2
20260508224549 68 77 1.0 0.0 0.00 0.00 0.00 28 1001.3
20260508223043 68 64 2.0 0.0 0.00 0.00 0.00 27 1001.5
20260508221542 68 95 2.0 0.0 0.00 0.00 0.00 28 1001.7
20260508220110 68 68 1.0 0.0 0.00 0.00 0.00 30 1001.9
20260508214542 69 87 1.0 0.0 0.00 0.00 0.00 25 1001.9
20260508213040 69 51 2.0 0.0 0.00 0.00 0.00 26 1001.9
20260508211545 68 77 2.0 0.0 0.00 0.00 0.00 24 1002.0
20260508210036 69 21 1.0 0.0 0.00 0.00 0.00 26 1002.3
20260508204534 68 59 2.0 0.0 0.00 0.00 0.00 25 1002.5
20260508203034 70 81 0.0 0.0 0.00 0.00 0.00 26 1002.7
20260508201534 71 38 2.0 0.0 0.00 0.00 0.00 24 1002.8
20260508200029 70 122 2.0 0.0 0.00 0.00 0.00 27 1003.1
20260508194531 70 67 2.0 0.0 0.00 0.00 0.00 23 1003.5
20260508193026 69 97 1.0 0.0 0.00 0.00 0.00 27 1003.7
20260508191521 68 65 2.0 0.0 0.00 0.00 0.00 25 1003.7
20260508190019 68 73 1.0 0.0 0.00 0.00 0.00 25 1003.9
20260508184521 68 54 1.0 0.0 0.00 0.00 0.00 23 1004.2
20260508183013 66 69 1.0 0.0 0.00 0.00 0.00 24 1004.4
20260508181511 66 60 2.0 0.0 0.00 0.00 0.00 26 1004.6
20260508180011 66 59 1.0 0.0 0.00 0.00 0.00 26 1004.7
20260508174516 65 60 1.0 0.0 0.00 0.00 0.00 27 1005.0
20260508173004 65 77 0.0 0.0 0.00 0.00 0.00 28 1005.1
20260508171501 64 81 2.0 0.0 0.00 0.00 0.00 26 1005.6
20260508170106 63 75 1.0 0.0 0.00 0.00 0.00 29 1005.7
20260508170001 63 71 1.0 0.0 0.00 0.00 0.00 28 1005.7
20260508164557 63 68 2.0 0.0 0.00 0.00 0.00 29 1006.1
20260508163054 63 68 0.0 0.0 0.00 0.00 0.00 30 1006.3
20260508161553 63 58 1.0 0.0 0.00 0.00 0.00 28 1006.6
20260508160052 63 49 1.0 0.0 0.00 0.00 0.00 29 1006.7
20260508154549 62 61 0.0 0.0 0.00 0.00 0.00 31 1006.9
20260508153046 61 347 1.0 0.0 0.00 0.00 0.00 32 1007.0
20260508151543 60 72 1.0 0.0 0.00 0.00 0.00 33 1007.1
20260508150040 60 47 0.0 0.0 0.00 0.00 0.00 36 1007.1
20260508144537 59 79 0.0 0.0 0.00 0.00 0.00 39 1007.2
20260508143035 58 28 0.0 0.0 0.00 0.00 0.00 43 1007.2
20260508141533 57 19 0.0 0.0 0.00 0.00 0.00 42 1007.3
20260508140034 55 53 0.0 0.0 0.00 0.00 0.00 44 1007.2
20260508134531 55 51 1.0 0.0 0.00 0.00 0.00 45 1007.2
20260508133022 53 66 0.0 0.0 0.00 0.00 0.00 49 1007.2
20260508131519 52 132 0.0 0.0 0.00 0.00 0.00 56 1007.7
20260508130014 49 132 0.0 0.0 0.00 0.00 0.00 68 1007.7
20260508124511 45 132 0.0 0.0 0.00 0.00 0.00 75 1007.6
20260508123010 43 132 0.0 0.0 0.00 0.00 0.00 77 1007.6
20260508121508 41 132 0.0 0.0 0.00 0.00 0.00 75 1007.6
20260508120009 40 132 0.0 0.0 0.00 0.00 0.00 73 1007.7
20260508114507 39 132 0.0 0.0 0.00 0.00 0.00 72 1007.6
20260508113014 38 132 0.0 0.0 0.00 0.00 0.00 73 1007.6
20260508111507 37 132 0.0 0.0 0.00 0.00 0.00 73 1007.6
20260508110014 37 132 0.0 0.0 0.00 0.00 0.00 74 1007.5
20260508104507 36 132 0.0 0.0 0.00 0.00 0.00 74 1007.6
20260508103004 37 132 0.0 0.0 0.00 0.00 0.00 75 1007.7
20260508101503 37 132 0.0 0.0 0.00 0.00 0.00 74 1007.6
20260508100001 37 132 0.0 0.0 0.00 0.00 0.00 74 1007.8
20260508094616 37 132 0.0 0.0 0.00 0.00 0.00 75 1007.9
20260508093059 37 132 0.0 0.0 0.00 0.00 0.00 76 1007.9
20260508091559 38 132 0.0 0.0 0.00 0.00 0.00 77 1008.0
20260508090056 38 132 0.0 0.0 0.00 0.00 0.00 77 1007.9
20260508084552 39 132 0.0 0.0 0.00 0.00 0.00 76 1008.1
20260508083052 40 132 0.0 0.0 0.00 0.00 0.00 76 1008.1
20260508081611 39 132 0.0 0.0 0.00 0.00 0.00 76 1008.2
20260508080050 39 132 0.0 0.0 0.00 0.00 0.00 76 1008.3
20260508074550 39 132 0.0 0.0 0.00 0.00 0.00 76 1008.3
20260508073048 39 132 0.0 0.0 0.00 0.00 0.00 76 1008.4
20260508071547 40 132 0.0 0.0 0.00 0.00 0.00 75 1008.4
20260508070043 41 132 0.0 0.0 0.00 0.00 0.00 73 1008.6
20260508064540 42 132 0.0 0.0 0.00 0.00 0.00 73 1008.6
20260508063052 42 132 0.0 0.0 0.00 0.00 0.00 73 1008.6
20260508061540 41 132 0.0 0.0 0.00 0.00 0.00 72 1008.8
20260508060036 41 132 0.0 0.0 0.00 0.00 0.00 69 1009.0
20260508054532 42 132 0.0 0.0 0.00 0.00 0.00 66 1009.0
20260508053033 42 132 0.0 0.0 0.00 0.00 0.00 64 1009.1
20260508051532 42 132 0.0 0.0 0.00 0.00 0.00 60 1009.2
20260508050025 43 132 0.0 0.0 0.00 0.00 0.00 59 1009.2
20260508044527 44 132 0.0 0.0 0.00 0.00 0.00 58 1009.2
20260508043022 44 132 0.0 0.0 0.00 0.00 0.00 56 1009.2